Terminal Aerodrome Forecast
Issued by NWS Huntsville, AL

Home | Current Version | Previous Version | Text Only | Print | Product List | Glossary On
Versions: 1 2 3 4 5 6 7 8 9 10 11 12 13 14 15 16 17 18 19 20 21 22 23 24
537
FTUS44 KHUN 080548
TAFMSL
TAF
KMSL 080548Z 0806/0906 23006KT P6SM BKN130 BKN250
     FM081000 27004KT P6SM OVC100
     FM081500 31010G18KT P6SM SCT035 BKN050 OVC080
     FM090000 31008KT P6SM -SHSN BKN035 OVC050=

USA.gov is the U.S. government's official web portal to all federal, state and local government web resources and services.